Weather History for KCFE - October, 2013

Change the Weather History Date:

Wednesday, October 23, 2013

  Actual Average (KSTC) Record (KSTC)
Temperature  
Mean Temperature 34 °F 43 °F  
Max Temperature 36 °F 53 °F 79 °F (1899)
Min Temperature 32 °F 33 °F 9 °F (1936)
Degree Days  
Heating Degree Days 31 22  
Month to date heating degree days 407  
Since 1 July heating degree days 693  
Cooling Degree Days 0 0  
Month to date cooling degree days 0  
Year to date cooling degree days 463  
Moisture  
Dew Point 24 °F    
Average Humidity 68    
Maximum Humidity 85    
Minimum Humidity 52    
Precipitation  
Precipitation 0.00 in 0.06 in 1.00 in (1995)
Month to date precipitation 1.99  
Year to date precipitation 25.03  
Snow  
Snow 0.00 in 0.10 in 4.90 in (1995)
Month to date snowfall 0.4  
Since 1 July snowfall 0.4  
Since 1 September snowfall 0.4  
Snow Depth -    
Sea Level Pressure  
Sea Level Pressure 30.05 in    
Wind  
Wind Speed 5 mph (WNW)    
Max Wind Speed 15 mph    
Max Gust Speed 20 mph    
Visibility 10 miles    
Events      
T = Trace of Precipitation, MM = Missing Value Source: NWS Daily Summary

Daily Weather History Graph

Daily Weather History Graph

Search for Another Location

Airport or City:

Trip Planner

Search our weather history database for the weather conditions in past years. The results will help you decide how hot, cold, wet, or windy it might be!

Date:

Astronomy

Oct. 23, 2013 Rise Set
Actual Time 7:42 AM CDT 6:16 PM CDT
Civil Twilight 7:12 AM CDT 6:46 PM CDT
Nautical Twilight 6:37 AM CDT 7:20 PM CDT
Astronomical Twilight 6:03 AM CDT 7:54 PM CDT
Moon 9:41 PM CDT (10/23) 12:06 PM CDT (10/23)
Length of Visible Light 11h 34m
Length of Day
10h 34m
Waning Gibbous, 79% of the Moon is Illuminated
Oct 23
Waning Gibbous
Oct 26
Last Quarter
Nov 3
New
Nov 9
First Quarter
Nov 17
Full

Hourly Weather History & Observations

Time (CDT) Temp. Windchill Dew Point Humidity Pressure Visibility Wind Dir Wind Speed Gust Speed Precip Events Conditions
12:16 AM 33.8 °F - 27.7 °F 78% 30.03 in 10.0 mi Calm Calm - N/A   Overcast
12:35 AM 33.8 °F - 28.0 °F 79% 30.03 in 10.0 mi Calm Calm - N/A   Overcast
12:56 AM 33.8 °F - 28.9 °F 82% 30.02 in 10.0 mi Calm Calm - N/A   Overcast
1:16 AM 33.8 °F 30.8 °F 28.6 °F 81% 30.02 in 10.0 mi WSW 3.5 mph - N/A   Overcast
1:35 AM 33.8 °F 30.8 °F 28.4 °F 81% 30.02 in 10.0 mi WSW 3.5 mph - N/A   Overcast
1:56 AM 33.8 °F 29.6 °F 28.4 °F 81% 30.02 in 10.0 mi WSW 4.6 mph - N/A   Overcast
2:16 AM 33.8 °F 28.6 °F 28.4 °F 81% 30.02 in 10.0 mi West 5.8 mph - N/A   Overcast
2:35 AM 33.8 °F 29.6 °F 28.4 °F 81% 30.02 in 10.0 mi West 4.6 mph - N/A   Overcast
2:56 AM 33.8 °F 29.6 °F 28.4 °F 81% 30.02 in 10.0 mi West 4.6 mph - N/A   Overcast
3:16 AM 33.8 °F 28.6 °F 28.4 °F 81% 30.02 in 10.0 mi West 5.8 mph - N/A   Overcast
3:36 AM 33.8 °F 27.7 °F 28.4 °F 81% 30.01 in 10.0 mi West 6.9 mph - N/A   Overcast
3:56 AM 33.8 °F 27.0 °F 28.9 °F 82% 30.01 in 10.0 mi West 8.1 mph - N/A   Overcast
4:16 AM 33.8 °F 27.0 °F 28.4 °F 81% 30.01 in 10.0 mi West 8.1 mph - N/A   Overcast
4:36 AM 33.8 °F 28.6 °F 28.8 °F 82% 30.01 in 10.0 mi West 5.8 mph - N/A   Overcast
4:56 AM 33.8 °F 28.6 °F 28.8 °F 82% 30.01 in 10.0 mi West 5.8 mph - N/A   Overcast
5:16 AM 33.8 °F 27.7 °F 28.9 °F 82% 30.01 in 10.0 mi West 6.9 mph - N/A   Overcast
5:36 AM 33.3 °F 27.1 °F 28.4 °F 82% 30.01 in 10.0 mi West 6.9 mph - N/A   Overcast
5:56 AM 33.1 °F 27.7 °F 28.4 °F 83% 30.01 in 10.0 mi West 5.8 mph - N/A   Overcast
6:16 AM 32.9 °F 27.5 °F 28.2 °F 83% 30.01 in 10.0 mi West 5.8 mph - N/A   Overcast
6:36 AM 32.9 °F 28.5 °F 28.4 °F 84% 30.01 in 10.0 mi West 4.6 mph - N/A   Overcast
6:56 AM 32.5 °F 25.5 °F 28.4 °F 85% 30.02 in 10.0 mi West 8.1 mph - N/A   Overcast
7:16 AM 32.4 °F 27.9 °F 28.4 °F 85% 30.01 in 10.0 mi West 4.6 mph - N/A   Overcast
7:36 AM 32.4 °F 27.9 °F 28.4 °F 85% 30.01 in 10.0 mi West 4.6 mph - N/A   Overcast
7:56 AM 32.4 °F 27.9 °F 28.4 °F 85% 30.02 in 10.0 mi West 4.6 mph - N/A   Overcast
8:16 AM 32.5 °F 27.1 °F 28.4 °F 85% 30.02 in 10.0 mi West 5.8 mph - N/A   Overcast
8:36 AM 32.9 °F 28.5 °F 28.4 °F 84% 30.03 in 10.0 mi West 4.6 mph - N/A   Overcast
8:56 AM 33.6 °F 29.4 °F 28.0 °F 80% 30.03 in 10.0 mi WNW 4.6 mph - N/A   Overcast
9:16 AM 33.8 °F 28.6 °F 26.4 °F 74% 30.03 in 10.0 mi WNW 5.8 mph - N/A   Overcast
9:36 AM 34.3 °F 28.4 °F 25.7 °F 71% 30.03 in 10.0 mi West 6.9 mph - N/A   Overcast
9:56 AM 34.7 °F 26.4 °F 25.5 °F 69% 30.03 in 10.0 mi NW 11.5 mph 16.1 mph N/A   Overcast
10:16 AM 34.7 °F 26.4 °F 22.8 °F 62% 30.04 in 10.0 mi WNW 11.5 mph 19.6 mph N/A   Overcast
10:36 AM 35.1 °F 27.4 °F 19.6 °F 53% 30.03 in 10.0 mi WNW 10.4 mph 16.1 mph N/A   Overcast
10:56 AM 34.7 °F 26.9 °F 20.7 °F 57% 30.04 in 10.0 mi WNW 10.4 mph - N/A   Overcast
11:16 AM 34.3 °F 26.5 °F 20.7 °F 57% 30.04 in 10.0 mi NW 10.4 mph - N/A   Overcast
11:36 AM 34.7 °F 28.1 °F 20.1 °F 55% 30.04 in 10.0 mi WNW 8.1 mph - N/A   Overcast
11:56 AM 34.7 °F 26.4 °F 20.3 °F 56% 30.04 in 10.0 mi WNW 11.5 mph 17.3 mph N/A   Overcast
12:16 PM 34.3 °F 27.7 °F 23.5 °F 65% 30.05 in 10.0 mi NW 8.1 mph - N/A   Overcast
12:36 PM 34.7 °F 27.5 °F 23.7 °F 64% 30.04 in 10.0 mi NW 9.2 mph 16.1 mph N/A   Overcast
12:56 PM 35.4 °F 28.4 °F 22.5 °F 59% 30.04 in 10.0 mi NW 9.2 mph - N/A   Overcast
1:16 PM 36.0 °F 29.0 °F 21.9 °F 57% 30.04 in 10.0 mi West 9.2 mph - N/A   Overcast
1:36 PM 35.6 °F 26.2 °F 21.7 °F 57% 30.04 in 10.0 mi West 15.0 mph - N/A   Overcast
1:56 PM 34.7 °F 27.5 °F 21.7 °F 59% 30.04 in 10.0 mi NW 9.2 mph - N/A   Overcast
2:16 PM 34.9 °F 27.7 °F 20.3 °F 55% 30.04 in 10.0 mi WNW 9.2 mph - N/A   Overcast
2:36 PM 34.7 °F 26.4 °F 20.7 °F 57% 30.04 in 10.0 mi NW 11.5 mph - N/A   Overcast
2:56 PM 34.5 °F 25.7 °F 20.3 °F 56% 30.05 in 10.0 mi WNW 12.7 mph 17.3 mph N/A   Overcast
3:16 PM 34.2 °F 25.7 °F 19.9 °F 56% 30.05 in 10.0 mi NW 11.5 mph 16.1 mph N/A   Overcast
3:36 PM 33.8 °F 25.8 °F 19.6 °F 56% 30.06 in 10.0 mi WNW 10.4 mph 16.1 mph N/A   Overcast
3:56 PM 33.8 °F 25.3 °F 19.6 °F 56% 30.06 in 10.0 mi NW 11.5 mph 16.1 mph N/A   Overcast
4:16 PM 33.8 °F 24.8 °F 19.2 °F 55% 30.06 in 10.0 mi WNW 12.7 mph 16.1 mph N/A   Overcast
4:36 PM 34.2 °F 26.8 °F 18.3 °F 52% 30.07 in 10.0 mi NNW 9.2 mph - N/A   Overcast
4:56 PM 34.7 °F 26.9 °F 18.9 °F 52% 30.07 in 10.0 mi NW 10.4 mph - N/A   Overcast
5:16 PM 34.3 °F 28.4 °F 19.2 °F 54% 30.07 in 10.0 mi NW 6.9 mph - N/A   Overcast
5:36 PM 34.0 °F 29.8 °F 19.2 °F 55% 30.07 in 10.0 mi NW 4.6 mph - N/A   Overcast
5:56 PM 33.8 °F - 19.8 °F 56% 30.07 in 10.0 mi Calm Calm - N/A   Overcast
6:16 PM 33.8 °F - 19.8 °F 56% 30.07 in 10.0 mi Calm Calm - N/A   Overcast
6:36 PM 33.4 °F - 20.7 °F 59% 30.07 in 10.0 mi Calm Calm - N/A   Overcast
6:56 PM 33.4 °F - 21.2 °F 61% 30.08 in 10.0 mi Calm Calm - N/A   Overcast
7:16 PM 33.6 °F 30.6 °F 20.8 °F 59% 30.09 in 10.0 mi North 3.5 mph - N/A   Overcast
7:36 PM 33.8 °F 25.8 °F 20.8 °F 59% 30.09 in 10.0 mi NNW 10.4 mph - N/A   Overcast
7:55 PM 33.8 °F 28.6 °F 21.2 °F 60% 30.09 in 10.0 mi NNW 5.8 mph - N/A   Overcast
8:16 PM 33.8 °F 28.6 °F 20.7 °F 59% 30.09 in 10.0 mi NNW 5.8 mph - N/A   Overcast
8:36 PM 33.8 °F 26.4 °F 20.1 °F 57% 30.10 in 10.0 mi NW 9.2 mph - N/A   Overcast
8:56 PM 33.3 °F 28.9 °F 20.7 °F 60% 30.11 in 10.0 mi North 4.6 mph - N/A   Overcast
9:16 PM 32.9 °F 27.5 °F 19.0 °F 57% 30.11 in 10.0 mi North 5.8 mph - N/A   Overcast
9:36 PM 32.5 °F 29.3 °F 19.4 °F 58% 30.11 in 10.0 mi North 3.5 mph - N/A   Overcast
9:56 PM 32.5 °F 28.1 °F 19.6 °F 59% 30.11 in 10.0 mi North 4.6 mph - N/A   Overcast
10:16 PM 32.2 °F 28.9 °F 19.6 °F 60% 30.11 in 10.0 mi North 3.5 mph - N/A   Overcast
10:36 PM 32.0 °F - 20.1 °F 62% 30.11 in 10.0 mi Calm Calm - N/A   Overcast
10:56 PM 32.0 °F 28.7 °F 21.4 °F 65% 30.11 in 10.0 mi West 3.5 mph - N/A   Overcast
11:16 PM 32.0 °F 26.4 °F 20.8 °F 63% 30.12 in 10.0 mi WNW 5.8 mph - N/A   Overcast
11:35 PM 32.4 °F 27.9 °F 21.0 °F 63% 30.12 in 10.0 mi NW 4.6 mph - N/A   Overcast
11:56 PM 32.4 °F 26.0 °F 21.2 °F 63% 30.12 in 10.0 mi NW 6.9 mph - N/A   Overcast